Simultaneous Nadir Overpasses (SNOs) Predictions

Prediction of SNOs between GOES-14 and NOAA-20 Satellite Orbit:

Table of predicted SNOs for the next 14.0 days since TLE Epoch: 8/26/2023
Index Date Time (GOES-14) GOES-14 Lat,Lon NOAA-20 Lat,Lon Distance(km) Time Diff (sec)
1 08/26/2023 08:37:36 0.44,-108.62 0.36,-108.30 36.39 80
2 08/28/2023 20:40:45 -0.43,-108.52 -0.57,-109.07 63.12 80
3 08/29/2023 20:24:40 -0.43,-108.52 0.43,-104.53 453.22 80
4 08/31/2023 08:46:28 0.43,-108.61 0.68,-109.82 137.36 80
5 09/01/2023 08:25:03 0.43,-108.61 -0.32,-105.28 378.91 80
6 09/02/2023 20:46:58 -0.42,-108.51 -0.87,-110.58 236.48 80
7 09/03/2023 20:30:53 -0.43,-108.51 0.13,-106.05 280.22 80
8 09/05/2023 08:50:00 0.41,-108.61 1.03,-111.32 309.67 80
9 09/06/2023 08:31:14 0.42,-108.60 0.03,-106.79 206.58 80
10 09/07/2023 20:53:10 -0.40,-108.49 -1.21,-112.09 409.88 80
11 09/08/2023 20:37:04 -0.40,-108.49 -0.21,-107.56 106.52 80
